Dies ist die Übersicht über die aktuellen Messwerte der DWD-Stationen.

Eine Auf/Abwärtssortierung der Messwerte, ist durch einen Klick auf den gewünschten Messwert im Tabellenkopf möglich (z.B. Klick auf "Temperatur 2m in °C" ändert Sortierung auf/absteigend). Die Messzeiten sind in UTC angegeben. Bei Sommerzeit sind 2 Stunden hinzu zu rechnen, bei Winterzeit 1 Stunde. Beispielsweise ist 14 UHR UTC = 15 Uhr Winterzeit bzw. 16 Uhr Sommerzeit. Die Messwerte werden jeweils zur 50igsten Minute vom DWD-Server geladen. Also jeweils 00:50 Uhr, 01:50 Uhr, 02:50, usw...

Station letzte Meldung Temperatur 2m in °C Taupunkt 2m in °C Feuchte 2m in % Temperatur 5cm in °C Mittelwind in km/h Spitzenböen in km/h Windrichtung in ° Luftdruck in hpa Sonnenscheindauer in Minuten Niederschlag in mm Sichtweite in km Neuschnee in cm Schneehöhe Gesamt in cm
Ahaus 06:00 03.3 02.1 92.0 04.0 09.0 17.0 220 1006.4 10 00.0 00.0
Alfeld 06:00 03.9 01.7 86.0 03.8 18.0 28.0 250 1005.1 01 00.0 00.0
Altenstadt 06:00 00.8 -00.9 88.0 14.0 260 00.0
Andernach 06:00 04.3 01.1 80.0 04.2 08.0 16.0 250 1008.7 07 00.0 00.0
Angermünde 06:00 04.3 02.6 89.0 06.3 09.0 17.0 150 1004.2 60 00.0 00.0
Arkona 06:00 06.5 04.5 87.0 07.4 09.0 31.0 080 1004.4 29 00.0 00.0
Artern 06:00 04.1 02.0 86.0 04.0 14.0 21.0 250 1005.3 00.0 00.0
Augsburg 06:00 02.7 00.4 85.0 02.7 17.0 24.0 230 1010.3 26 00.0 00.0
Bamberg 06:00 03.2 02.2 93.0 03.5 05.0 09.0 170 1008.5 00 00.0 00.0
Barth 06:00 04.3 03.7 96.0 04.0 04.0 04.0 250 1003.7 00.0 00.0
Baruth 06:00 02.6 01.6 93.0 03.0 04.0 12.0 130 1004.3 00.2 00.0
Belm 06:00 04.1 02.7 91.0 03.9 13.0 24.0 270 1005.4 00 00.0 00.0
Bergen 06:00 04.1 03.2 94.0 04.0 220 1004.2 00.0
Berlin-Dahlem (FU) 06:00 03.6 01.8 88.0 04.0 190 1004.2 00.0
Berlin-Schönefeld 06:00 02.8 01.3 90.0 03.7 06.0 11.0 150 1004.2 09 00.0
Berlin-Tegel 06:00
Berlin-Tempelhof 06:00 03.9 01.9 87.0 04.2 04.0 11.0 140 1004.1 00.0 00.0
Berus 06:00 02.7 01.6 92.0 03.6 11.0 22.0 250 1010.0 00 00.0 00.0
Boizenburg 06:00 05.5 03.9 89.0 06.3 03.0 05.0 290 1003.4 07 00.0 00.0
Boltenhagen 06:00 05.5 03.4 86.0 06.1 05.0 08.0 180 1003.3 02 00.0 00.0
Bonn-Roleber 06:00 03.8 02.2 89.0 03.6 14.0 24.0 250 1008.4 00.1 00.0
Braunlage 06:00 00.5 -01.2 88.0 00.1 09.0 29.0 260 1005.0 00.0 06.0
Braunschweig 06:00 04.2 03.4 95.0 04.2 10.0 19.0 260 1004.6 00 00.0 00.0
Bremen 06:00 03.2 02.2 93.0 03.5 09.0 15.0 250 1004.3 24 00.0
Bremerhaven 06:00 05.6 03.7 88.0 05.6 16.0 22.0 250 1003.6 00 00.0 00.0
Bremervörde 06:00 03.1 01.9 92.0 04.0 09.0 12.0 230 1003.8 33 00.0 00.0
Brocken 06:00 -03.3 -04.0 95.0 -00.2 48.0 58.0 280 00 00.2 11.0
Büchel (Flugplatz) 06:00 00.3 -00.6 94.0 11.0 270 1009.2 00.0
Bückeburg 06:00 04.0 02.9 93.0 11.0 270 1004.9 00.0
Carlsfeld 06:00 -01.3 -02.4 92.0 00.0 13.0 26.0 280 00 00.0 08.0
Celle 06:00 04.0 02.9 93.0 11.0 250 1004.4 00.0
Chieming 06:00 03.9 -00.8 71.0 04.1 17.0 29.0 260 1010.6 00 00.0 00.0
Cottbus 06:00 04.4 02.5 87.0 04.0 09.0 19.0 190 1004.9 00 00.0 00.0
Cuxhaven 06:00 04.6 02.8 88.0 04.4 08.0 13.0 220 1003.3 15 00.0 00.0
Deuselbach 06:00 02.0 00.2 88.0 02.1 11.0 15.0 250 1009.4 00 00.0 00.0
Diepholz 06:00 04.3 03.1 92.0 04.5 13.0 21.0 260 1004.9 00 00.0 00.0
Doberlug-Kirchhain 06:00 04.2 02.5 89.0 04.3 11.0 18.0 200 1004.6 00 00.0 00.0
Dörnick 06:00 04.3 02.8 90.0 04.5 03.0 06.0 260 1003.3 01 00.0 00.0
Dresden-Klotzsche 06:00 03.7 01.5 86.0 03.9 10.0 18.0 170 1005.5 00 00.0 00.0
Düsseldorf 06:00 04.0 02.6 91.0 03.5 11.0 18.0 230 1007.6 01 00.0
Eisenach 06:00 02.0 01.0 93.0 02.3 08.0 19.0 340 1006.5 00 00.3 00.0
Elpersbüttel 06:00 03.2 02.9 98.0 03.0 04.0 10.0 110 1003.2 23 00.0 00.0
Emden 06:00 06.1 02.9 80.0 06.3 07.0 13.0 280 1004.1 27 00.0 00.0
Erfurt-Weimar 06:00 02.9 00.8 86.0 03.0 26.0 34.0 250 1006.2 00.0
Essen-Bredeney 06:00 03.3 02.5 94.0 03.3 08.0 12.0 210 1007.5 01 00.0 00.0
Faßberg 06:00 04.1 03.5 96.0 07.0 260 1003.7 00.0
Fehmarn 06:00 05.6 03.9 89.0 05.7 10.0 13.0 120 1003.5 00 00.0 00.0
Feldberg/Mecklenburg 06:00 03.6 02.3 91.0 03.7 07.0 13.0 140 1003.9 10 00.0 00.0
Feldberg/Schwarzwald 06:00 -04.8 -05.7 93.0 00.1 28.0 38.0 230 00 00.0 93.0
Feuchtwangen-Heilbronn 06:00 02.4 01.2 92.0 02.6 11.0 22.0 260 1009.3 00.0 00.0
Fichtelberg 06:00 -03.3 -04.0 95.0 -00.9 38.0 58.0 270 00 00.0 12.0
Frankfurt/Main 06:00 05.1 00.7 73.0 05.2 20.0 27.0 250 1008.6 00 00.0 00.0
Freiburg 06:00 04.8 01.6 80.0 04.6 07.0 12.0 190 1011.2 00 00.0 00.0
Freudenstadt 06:00 00.0 -01.3 91.0 -00.1 10.0 23.0 240 00 00.2 00.0
Friesoythe-Altenoythe 06:00
Fritzlar (Flugplatz) 06:00 03.4 01.8 89.0 07.0 240 1006.7 00.0
Fürstenzell 06:00 01.8 01.4 97.0 02.1 09.0 15.0 220 1010.5 00 00.2 00.0
Gardelegen 06:00 04.4 03.6 95.0 04.6 03.0 04.0 180 1004.1 00 00.0 00.0
Garmisch-Partenkirchen 06:00 00.1 -01.0 92.0 00.1 04.0 09.0 170 1011.8 00 00.0 01.0
Geilenkirchen (Flugplatz) 06:00 04.2 02.4 88.0 11.0 240 1008.2 00.0
Geisenheim 06:00 04.6 00.3 74.0 03.4 05.0 12.0 230 1008.9 17 00.0 00.0
Gelbelsee 06:00 01.2 00.5 95.0 01.6 09.0 17.0 210 1009.8 00 00.0 00.0
Genthin 06:00 04.4 02.6 88.0 05.1 04.0 06.0 170 1003.8 06 00.0 00.0
Gera-Leumnitz 06:00 03.0 00.8 85.0 02.7 16.0 27.0 250 1006.1 00 00.0 00.0
Gießen/Wettenberg 06:00 03.8 02.6 92.0 03.9 12.0 21.0 230 1007.7 00 00.0 00.0
Glücksburg-Meierwik 06:00 03.4 03.3 99.0 00.0 000 1002.9
Goldberg 06:00 03.5 02.2 91.0 02.8 05.0 12.0 120 1003.6 00.0
Görlitz 06:00 03.5 01.6 87.0 03.9 12.0 19.0 210 1006.1 02 00.0 00.0
Gottfrieding 06:00 03.2 01.9 91.0 03.4 06.0 14.0 230 1010.1 03 00.0 00.0
Göttingen 06:00 03.9 01.7 86.0 04.2 06.0 19.0 300 1006.0 00 00.0 00.0
Greifswald 06:00 05.3 02.7 83.0 05.6 09.0 13.0 240 1004.0 00 00.0 00.0
Greifswalder Oie 06:00 06.4 02.6 77.0 06.7 19.0 26.0 110 1003.9 00.0 00.0
Großer Arber 06:00 -04.4 -04.9 96.0 27.0 43.0 240 00 00.3 51.0
Grünow 06:00 05.3 02.7 83.0 06.3 11.0 17.0 140 1004.0 00.0 00.0
Hahn 06:00 01.4 -00.1 90.0 01.2 09.0 19.0 260 22 00.0 00.0
Hamburg-Fuhlsbüttel 06:00 04.2 03.4 95.0 04.5 03.0 05.0 240 1003.5 00 00.0 00.0
Hannover 06:00 04.2 02.7 90.0 04.7 12.0 22.0 270 1004.7 00 00.0 00.0
Harburg 06:00 01.8 00.1 88.0 01.6 17.0 26.0 230 1010.0 00.0 00.0
Harzgerode 06:00 01.2 00.4 94.0 01.4 09.0 16.0 250 1005.1 04 00.0 00.0
Helgoland 06:00 05.0 03.7 91.0 04.5 04.0 13.0 260 1003.1 00 01.6 00.0
Hersfeld, Bad 06:00 03.6 01.0 83.0 03.2 15.0 24.0 220 1006.7 00 00.0 00.0
Hof 06:00 01.5 -00.5 87.0 01.7 12.0 24.0 240 1007.2 28 00.0 00.0
Hohenpeißenberg 06:00 -01.2 -01.5 98.0 -01.0 19.0 34.0 240 00 00.2 02.0
Hoherodskopf/Vogelsberg 06:00 -00.3 -00.5 99.0 -00.1 15.0 30.0 260 1007.7 00 00.0 00.0
Hohn 06:00 00.6 00.4 99.0 04.0 000 1003.2 00.0
Holzdorf (Flugplatz) 06:00 04.3 03.4 94.0 11.0 220 1004.3 00.0
Hoyerswerda 06:00 03.8 02.1 89.0 04.2 11.0 17.0 180 1005.2 00.1 00.0
Idar-Oberstein 06:00 03.0 00.2 82.0 11.0 210 1009.2 00.0
Ingolstadt (Flugplatz) 06:00 03.1 00.4 82.0 11.0 230 1009.8 00.0
Itzehoe 06:00 04.0 03.5 97.0 04.6 02.0 04.0 150 1003.3 00.0
Kahler Asten 06:00 -01.4 -01.8 97.0 -01.2 26.0 40.0 280 00 00.1 02.0
Kaisersbach-Cronhütte 06:00 02.0 00.7 91.0 02.0 07.0 15.0 230 1010.1 00.0 00.0
Kempten 06:00 01.6 -01.0 83.0 01.1 10.0 22.0 230 1011.1 00 00.1 00.0
Kiel-Holtenau 06:00 04.2 03.4 95.0 03.0 04.0 07.0 150 1003.3 00.0 00.0
Kissingen, Bad 06:00 03.0 01.5 90.0 02.9 10.0 17.0 210 1007.9 00 00.0 00.0
Kleiner Feldberg/Taunus 06:00 -01.0 -01.3 98.0 -00.7 12.0 31.0 300 00 00.0 00.0
Klippeneck 06:00 -01.1 -02.4 91.0 -01.1 10.0 20.0 240 00 00.0 00.0
Köln-Bonn 06:00 04.4 02.9 90.0 05.0 08.0 17.0 270 1008.4 00 00.0
Konstanz 06:00 03.9 00.3 77.0 03.9 13.0 25.0 240 1011.4 00 00.0 00.0
Kümmersbruck 06:00 02.8 01.1 89.0 14.0 230 1008.4 00.0
Kyritz 06:00 02.8 01.9 94.0 03.6 04.0 08.0 230 1003.7 00 00.0 00.0
Laage (Flugplatz) 06:00 04.0 02.9 93.0 07.0 090 1003.6 00.0
Lahr 06:00 04.8 02.7 86.0 04.8 13.0 20.0 190 1010.9 00 00.0 00.0
Laupheim 06:00 02.0 -00.1 86.0 14.0 230 1010.8 00.0
Lautertal-Oberlauter 06:00 02.7 01.0 89.0 03.0 09.0 16.0 270 1007.6 36 00.0 00.0
Lechfeld 06:00 02.2 -00.2 84.0 14.0 210 1010.6 00.0
Leck 06:00 01.8 01.1 95.0 01.5 06.0 07.0 090 1003.1 21 00.0 00.0
Leinefelde 06:00 02.5 00.8 89.0 02.6 14.0 27.0 260 1005.9 03 00.0 00.0
Leipzig-Holzhausen 06:00 04.4 02.2 86.0 04.1 09.0 27.0 240 1004.9 00.0 00.0
Leipzig/Halle 06:00 03.3 02.0 91.0 03.4 24.0 39.0 260 1005.0 00 00.5 00.0
Leutkirch-Herlazhofen 06:00 01.3 00.0 91.0 00.8 11.0 18.0 230 1011.4 00.0 00.0
Lichtenhain-Mittelndorf 06:00 01.8 00.6 92.0 02.2 10.0 18.0 160 1006.4 00 00.2 00.0
Lindenberg 06:00 02.2 01.1 92.0 03.0 08.0 15.0 160 1004.7 27 00.0 00.0
Lippspringe, Bad 06:00 03.8 03.0 95.0 03.8 17.0 28.0 270 1005.8 00 00.0 00.0
List auf Sylt 06:00 05.6 02.6 81.0 05.5 14.0 19.0 140 1002.8 06 00.0 00.0
Lübeck-Blankensee 06:00 05.0 02.9 86.0 05.7 04.0 07.0 190 1003.4 00 00.0 00.0
Lüchow 06:00 04.6 03.8 95.0 04.8 04.0 06.0 200 1003.7 00 00.0 00.0
Lüdenscheid 06:00 02.4 01.0 90.0 02.4 14.0 26.0 270 1007.4 00 00.0 00.0
Lügde-Paenbruch 06:00 02.9 01.6 91.0 03.5 05.0 17.0 250 1005.6 00 00.0 00.0
Magdeburg 06:00 04.8 03.1 89.0 04.5 12.0 25.0 260 1004.0 00 00.0 00.0
Mannheim 06:00 05.1 03.1 87.0 05.3 10.0 15.0 150 1009.4 00 00.0 00.0
Manschnow 06:00 03.9 01.3 83.0 04.7 06.0 09.0 140 1004.6 60 00.0 00.0
Marienberg 06:00 00.5 -01.2 88.0 00.2 14.0 24.0 250 1006.3 00.0 00.0
Marienberg, Bad 06:00 00.1 -00.2 98.0 00.1 12.0 21.0 270 1008.3 00 00.7 00.0
Marnitz 06:00 02.5 01.2 91.0 02.8 04.0 06.0 140 1003.7 00.0 00.0
Meiningen 06:00 02.4 00.0 84.0 02.2 06.0 14.0 230 1007.1 00 00.0 00.0
Meßstetten 06:00 -00.4 -02.4 86.0 -00.6 11.0 21.0 260 00 00.0 01.0
Michelstadt-Vielbrunn 06:00 02.2 01.2 93.0 02.2 14.0 27.0 250 1008.8 00 00.0 00.0
Mühlacker 06:00 03.9 02.1 88.0 03.4 09.0 18.0 260 1010.1 00.0 00.0
Mühldorf 06:00 02.8 00.7 86.0 03.3 04.0 08.0 230 1010.7 09 00.0 00.0
München-Flughafen 06:00 02.9 00.5 84.0 02.7 19.0 26.0 230 1010.5 03 00.0 00.0
München-Stadt 06:00 03.7 -00.7 73.0 04.1 12.0 24.0 260 1010.3 15 00.0 00.0
Münster/Osnabrück 06:00 04.6 02.9 89.0 05.2 14.0 25.0 250 1005.9 00 00.0 00.0
Neu-Ulrichstein 06:00 02.6 01.5 92.0 03.1 16.0 23.0 220 1007.4 00 00.0 00.0
Neuburg/Donau (Flugplatz) 06:00 03.0 01.1 87.0 07.0 180 1010.0 00.0
Neuhaus am Rennweg 06:00 -01.0 -01.9 94.0 -00.8 17.0 34.0 240 00.1 12.0
Neuhütten/Spessart 06:00 02.7 01.4 91.0 02.6 12.0 26.0 240 1008.3 00 00.5 00.0
Niederstetten 06:00 02.6 01.3 91.0 22.0 260 1009.0 00.0
Norderney 06:00 06.7 00.7 66.0 06.1 24.0 35.0 300 1003.7 00 00.0 00.0
Nordholz (Flugplatz) 06:00 03.8 02.6 92.0 07.0 240 1003.4 00.0
Nörvenich (Flugplatz) 06:00 04.2 02.6 89.0 11.0 260 1008.1 00.0
Nürburg-Barweiler 06:00 00.9 -00.1 93.0 00.8 10.0 15.0 230 1009.0 00 00.0 00.0
Nürnberg 06:00 02.6 01.2 90.0 02.4 16.0 28.0 230 1009.2 00 00.0 00.0
Oberstdorf 06:00 00.6 -00.9 90.0 00.3 06.0 12.0 180 00 00.0 00.0
Offenbach-Wetterpark 06:00 05.0 01.3 77.0 05.1 09.0 18.0 230 1008.3 00.0 00.0
Öhringen 06:00 03.8 02.3 90.0 03.9 12.0 24.0 240 1009.7 00 00.0 00.0
Oschatz 06:00 04.5 02.1 84.0 04.5 16.0 30.0 240 1005.1 00 00.0 00.0
Osterfeld 06:00 03.8 01.9 87.0 03.3 09.0 21.0 250 1005.7 00.0 00.0
Pelzerhaken 06:00 07.1 03.3 77.0 08.6 02.0 07.0 130 1003.3 00.0 00.0
Plauen 06:00 03.3 00.5 82.0 03.7 15.0 27.0 210 1006.7 00.0 00.0
Potsdam 06:00 03.8 01.7 86.0 03.7 06.0 14.0 190 1003.9 00 00.0 00.0
Putbus 06:00 06.5 03.2 79.0 06.3 06.0 14.0 110 1003.9 00.0 00.0
Quickborn 06:00 04.6 03.9 95.0 05.3 05.0 11.0 150 1003.5 00.0 00.0
Regensburg 06:00 03.1 00.6 84.0 03.0 07.0 17.0 220 1009.5 03 00.0 00.0
Rheinstetten 06:00 04.8 02.9 87.0 04.2 14.0 22.0 220 1010.3 00 00.3 00.0
Rostock-Warnemünde 06:00 05.2 02.6 83.0 05.1 09.0 15.0 210 1003.5 13 00.0 00.0
Roth 06:00 03.2 01.9 91.0 03.1 11.0 17.0 240 1009.2 00.1 00.0
Saarbrücken-Ensheim 06:00 03.0 01.5 90.0 03.4 12.0 18.0 240 1010.1 00 00.0
Salzuflen, Bad 06:00 03.8 02.5 91.0 04.3 06.0 17.0 220 1005.5 00.0 00.0
Sankt Peter-Ording 06:00 03.6 02.6 93.0 03.6 11.0 15.0 120 1003.0 21 00.0 00.0
Schauenburg-Elgershausen 06:00 02.4 01.4 93.0 03.1 04.0 08.0 330 1006.5 01 00.4 00.0
Schleiz 06:00 02.3 00.1 85.0 02.6 14.0 23.0 240 1006.5 00.0 00.0
Schleswig 06:00 02.4 01.9 96.0 01.9 00.0 04.0 000 1003.3 00 00.0 00.0
Schleswig-Jagel 06:00 00.2 00.0 99.0 07.0 240 1003.3 00.0
Schmücke 06:00 -01.9 -02.4 96.0 -00.1 16.0 33.0 240 00 01.0 16.0
Schönhagen (Ostseebad) 06:00 03.1 02.8 98.0 03.9 02.0 04.0 320 1003.2 00.0 00.0
Schwerin 06:00 04.4 02.2 86.0 04.7 05.0 10.0 200 1003.4 00.0 00.0
Seehausen 06:00 04.5 03.4 93.0 04.6 00.0 03.0 000 1003.7 00.5 00.0
Soltau 06:00 03.8 03.1 95.0 04.5 10.0 15.0 250 1004.2 00 00.0 00.0
Stötten 06:00 00.0 -00.1 99.0 00.1 18.0 31.0 260 1010.3 00 00.0 04.0
Straubing 06:00 03.5 01.1 84.0 04.1 14.0 21.0 210 1009.7 08 00.0 00.0
Stuttgart (Schnarrenberg) 06:00 03.9 01.1 82.0 03.5 05.0 18.0 240 1010.2 00 00.0 00.0
Stuttgart-Echterdingen 06:00 02.9 01.2 89.0 02.9 04.0 11.0 210 1009.8 00.0 00.0
Tholey 06:00 02.2 01.4 94.0 02.7 13.0 20.0 240 1009.8 00 00.0 00.0
Trier-Petrisberg 06:00 03.7 01.2 84.0 04.1 13.0 22.0 220 1009.6 00 00.0 00.0
Trollenhagen 06:00 06.0 02.2 77.0 04.6 03.0 09.0 100 1003.9 40 00.0
Ueckermünde 06:00 04.3 03.2 93.0 04.0 04.0 12.0 220 1004.3 00 00.3 00.0
UFS Deutsche Bucht 06:00 06.4 04.1 85.0 22.0 350 1003.2
UFS TW Ems 06:00
Ulm-Mähringen 06:00 01.5 -01.2 82.0 01.1 11.0 23.0 230 1010.5 00 00.0 00.0
Ummendorf 06:00 02.3 01.2 92.0 02.3 25.0 34.0 270 1004.4 00.4 00.0
Waibstadt 06:00 03.7 02.4 91.0 03.7 15.0 26.0 240 1009.6 00.0 00.0
Waldmünchen 06:00 01.9 00.5 90.0 02.0 17.0 32.0 210 1008.8 00 00.0 00.0
Warburg 06:00 02.7 02.1 96.0 02.9 05.0 08.0 170 1006.2 00.0 00.0
Waren (Müritz) 06:00 04.6 02.2 84.0 06.0 06.0 09.0 060 1003.8 22 00.0 00.0
Wasserkuppe 06:00 -01.3 -01.6 98.0 -00.7 20.0 34.0 270 00 00.0 07.0
Weiden 06:00 01.4 00.7 95.0 01.6 07.0 19.0 220 1008.7 00 01.0 00.0
Weihenstephan-Dürnast 06:00 02.5 00.2 85.0 02.2 17.0 22.0 240 1010.4 06 00.0 00.0
Weinbiet 06:00 01.3 00.1 92.0 01.6 26.0 40.0 250 1009.3 00 00.0 00.0
Weißenburg-Emetzheim 06:00 03.3 01.1 85.0 03.2 13.0 20.0 250 1009.5 00 00.0 00.0
Werl 06:00 04.4 02.6 88.0 04.3 16.0 26.0 250 1006.9 00 00.0 00.0
Wernigerode 06:00 04.2 00.4 76.0 04.4 16.0 33.0 270 1004.7 00.0 00.0
Wiesenburg 06:00 03.1 02.6 97.0 03.3 10.0 15.0 240 1004.1 00.0 00.0
Wittenberg 06:00 04.0 03.0 93.0 04.1 08.0 13.0 250 1004.3 00 00.0 00.0
Wittmundhafen 06:00 04.6 03.8 95.0 07.0 240 1003.6 00.0
Wunsiedel-Schönbrunn 06:00 00.7 -01.2 87.0 00.1 10.0 26.0 260 1007.8 00.2 00.0
Wunstorf 06:00 04.3 02.9 91.0 14.0 260 1004.7 00.0
Würzburg 06:00 03.6 02.1 90.0 03.5 15.0 27.0 250 1009.1 00 00.0 00.0
Zinnwald-Georgenfeld 06:00 -01.1 -02.0 94.0 -01.1 20.0 31.0 210 00 00.8 01.0
Zugspitze 06:00 -15.0 -16.9 85.0 15.0 53.0 320 00 465.0